STARLINK-5122 (54179 NORAD) Tracking and Keplerian Element Data

This shows tracking and keplerian element data for the satellite.

Feedback or suggestion? Click here.




ElementValue
Catalog54179
NameSTARLINK-5122
Epoch Orbit407
Epoch Day325.25001157
Epoch Year2022
RAAN24.1109
Inclination53.2188
Eccentricity0.0002779
Argument of Perigee7.8512
Mean Anonmoly14.2117
Mean Motion15.73196865
Decay Rate-0.00045632
L11 54179U 22141Y 22325.25001157 -.00045632 00000+0 -32243-3 0 9999
L22 54179 53.2188 24.1109 0002779 7.8512 14.2117 15.73196865 4078



Live tracking and technical data element details for STARLINK-5122 (NORAD 54179). STARLINK-5122 can be tracked NOW for your location showing map with azimuth and elevation plus other details from your city location.







IsCatalogInMostPopularTable: catalog: 54179, numindb: 4
Update: records affected: 1



GetName: 54179 STARLINK-5122

Hit Count: updated at: Mon, 28 Nov 2022 21:27:56 GMT